Regional Weather Roundup
Issued by NWS

Home | Current Version | Previous Version | Graphics & Text | Print | Product List | Glossary On
Versions: 1 2 3 4 5 6 7 8 9 10 11 12 13 14 15 16 17 18 19 20 21 22 23 24 25 26 27 28 29 30 31 32 33 34 35 36 37 38 39 40 41 42 43 44 45 46 47 48 49 50
000
ASUS43 KOAX 251302
RWRNE

WEATHER ROUNDUP FOR NEBRASKA
NATIONAL WEATHER SERVICE OMAHA NE
800 AM CDT MON SEP 25 2017

NOTES: SATELLITE DATA IS BEING USED TO AUGMENT CLOUD COVER ABOVE
       12000 FEET.
       "FAIR" INDICATES FEW OR NO CLOUDS BELOW 12,000 FEET WITH NO
       SIGNIFICANT WEATHER AND/OR OBSTRUCTIONS TO VISIBILITY.


NEZ001>004-019>022-054>056-251400-
NEBRASKA PANHANDLE

CITY           SKY/WX    TMP DP  RH WIND       PRES   REMARKS
SCOTTSBLUFF    CLOUDY    44  40  85 NE5       30.12S
ALLIANCE       CLOUDY    42  40  92 N6        30.10R
CHADRON        CLOUDY    41  39  93 CALM      30.14R
GORDON         CLOUDY    43  42  95 NE8       30.10S
KIMBALL        CLOUDY    42  42 100 NE9       30.11S
SIDNEY         CLOUDY    43  42  97 N9        30.11S
$$

NEZ057>060-069>072-079>082-251400-
SOUTHWEST NEBRASKA

CITY           SKY/WX    TMP DP  RH WIND       PRES   REMARKS
NORTH PLATTE   CLOUDY    49  47  93 N12       30.05F
IMPERIAL       CLOUDY    48  45  89 N8        30.10R
LEXINGTON      CLOUDY    51  49  91 N13       30.02F
MCCOOK         CLOUDY    51  49  92 N12       30.01F
OGALLALA       CLOUDY    49  46  90 NE8       30.08R
$$

NEZ005>010-023>029-035>040-094-251400-
NORTH CENTRAL NEBRASKA

CITY           SKY/WX    TMP DP  RH WIND       PRES   REMARKS
VALENTINE      CLOUDY    47  45  93 N9        30.11R
AINSWORTH      CLOUDY    47  47 100 N12       30.09R
BROKEN BOW     CLOUDY    50  49  96 N13       30.05R
O`NEILL        LGT RAIN  49  49 100 N10       30.06R
ORD            CLOUDY    50  47  89 N12       30.02R
THEDFORD       CLOUDY    47  46  96 N7        30.12R FOG
$$

NEZ041-046>049-061>064-073>077-083>087-251400-
SOUTH CENTRAL NEBRASKA

CITY           SKY/WX    TMP DP  RH WIND       PRES   REMARKS
GRAND ISLAND   LGT RAIN  53  53 100 N12       30.00R
AURORA         LGT RAIN  53  53 100 N10       29.99R
HASTINGS       LGT RAIN  53  52  96 N10       29.99R
HEBRON         TSTM      58  58  97 CALM      29.97R
HOLDREGE       CLOUDY    51  49  96 N10G18    30.00S FOG
KEARNEY        LGT RAIN  51  50  96 N16       30.00F FOG
YORK           LGT RAIN  55  55 100 CALM      29.97R
$$

NEZ011>018-030>034-042>045-251400-
NORTHEAST NEBRASKA

CITY           SKY/WX    TMP DP  RH WIND       PRES   REMARKS
NORFOLK        CLOUDY    53  53 100 N12       29.99R
ALBION         CLOUDY    53  52  96 N9        30.01R FOG
BLAIR          LGT RAIN  58  57  98 N10       29.97R
COLUMBUS       CLOUDY    55  53  93 MISG      29.98R
FREMONT        TSTM      58  58  98 NE5       29.95F
TEKAMAH        TSTM      58  57  97 NE8       29.96F FOG
WAYNE          CLOUDY    55  52  91 N5        30.00R
$$

NEZ050>053-065>068-078-088>093-251400-
SOUTHEAST NEBRASKA

CITY           SKY/WX    TMP DP  RH WIND       PRES   REMARKS
LINCOLN        CLOUDY    58  56  93 NE9       29.97R
OMAHA EPPLEY   CLOUDY    60  56  86 N12       29.96S
BEATRICE       FOG       62  62  99 N7        29.95R VSB 1/2
FALLS CITY     PTCLDY    67  65  93 S6        29.91S
NEBRASKA CITY  MOCLDY    64  64 100 NE6       29.95S
PLATTSMOUTH    CLOUDY    63  63 100 CALM      29.96S FOG
$$

NEZ044-045-051>053-067-251400-
OMAHA AREA

CITY           SKY/WX    TMP DP  RH WIND       PRES   REMARKS
OMAHA EPPLEY   CLOUDY    60  56  86 N12       29.96S
BLAIR          LGT RAIN  58  57  98 N10       29.97R
FREMONT        TSTM      58  58  98 NE5       29.95F
MILLARD        CLOUDY    60  59  96 CALM      29.96S
OFFUTT AFB     CLOUDY    64  61  93 N7        29.95S
PLATTSMOUTH    CLOUDY    63  63 100 CALM      29.96S FOG
WAHOO          RAIN      58  58  97 E9        29.95F
$$




USA.gov is the U.S. government's official web portal to all federal, state and local government web resources and services.